Temp
-20 -19 -18 -17 -16 -16 -16 -15 -15 -16 -16 -15 -15 -15 -15 -15 -15 -15 -15 -15 -15 -16 -15 -15 -15 -15 -14 -14 -14 -14 -14 -14 -14 -15 -16 -17 -19 -21 -23 -23 -22 -22 -21 -21 -19 -19 -19 -18 -18 -18 -18 -18 -18 -19
-19 -19 -18 -17 -16 -16 -16 -16 -16 -16 -16 -16 -16 -15 -15 -15 -15 -15 -15 -15 -15 -15 -15 -16 -15 -15 -15 -14 -14 -14 -14 -15 -15 -16 -17 -18 -19 -20 -21 -21 -21 -21 -21 -20 -19 -19 -19 -18 -18 -18 -18 -18 -18 -19
-19 -18 -18 -17 -16 -16 -16 -16 -16 -16 -16 -16 -15 -15 -15 -15 -15 -16 -15 -15 -15 -16 -15 -16 -15 -15 -15 -14 -14 -15 -15 -15 -16 -16 -17 -17 -18 -18 -19 -20 -20 -20 -20 -19 -19 -19 -19 -18 -18 -18 -18 -18 -18 -18
-19 -18 -18 -17 -17 -16 -16 -16 -16 -16 -16 -16 -16 -16 -16 -15 -15 -15 -15 -16 -16 -16 -16 -15 -15 -15 -15 -15 -14 -14 -15 -15 -16 -16 -17 -17 -17 -18 -18 -19 -19 -18 -19 -19 -19 -19 -19 -18 -18 -18 -18 -18 -18 -18
-19 -18 -17 -18 -17 -17 -16 -17 -16 -16 -16 -16 -16 -16 -15 -15 -15 -15 -15 -15 -16 -16 -16 -16 -15 -15 -15 -15 -14 -15 -15 -15 -16 -16 -16 -17 -17 -17 -18 -18 -18 -18 -18 -19 -19 -19 -19 -18 -18 -18 -18 -18 -18 -18
-19 -18 -19 -18 -17 -17 -17 -17 -17 -17 -17 -16 -16 -16 -16 -16 -16 -15 -16 -15 -16 -16 -16 -16 -15 -15 -15 -15 -14 -15 -15 -15 -16 -16 -16 -16 -16 -17 -17 -17 -17 -17 -18 -18 -18 -18 -18 -18 -18 -18 -18 -18 -18 -18
-19 -18 -19 -18 -17 -17 -17 -17 -17 -17 -17 -16 -16 -16 -16 -16 -16 -16 -16 -16 -16 -16 -16 -16 -15 -15 -15 -15 -15 -15 -15 -16 -15 -16 -16 -17 -17 -17 -17 -17 -17 -17 -17 -18 -18 -18 -18 -18 -18 -18 -18 -18 -18 -18
-19 -19 -19 -18 -17 -17 -17 -17 -17 -17 -17 -16 -16 -16 -16 -16 -16 -16 -16 -16 -16 -16 -16 -16 -16 -16 -15 -15 -15 -15 -15 -16 -16 -16 -16 -17 -17 -17 -17 -18 -18 -17 -18 -18 -18 -18 -18 -18 -18 -18 -18 -18 -18 -18
-19 -19 -18 -18 -18 -18 -17 -17 -17 -17 -17 -16 -16 -16 -16 -16 -16 -16 -16 -16 -16 -16 -16 -16 -16 -16 -16 -16 -15 -15 -15 -16 -16 -16 -16 -16 -17 -17 -17 -17 -17 -18 -18 -18 -18 -18 -19 -19 -18 -18 -18 -18 -18 -18
-19 -19 -18 -18 -19 -18 -17 -17 -18 -17 -17 -17 -17 -17 -17 -17 -16 -16 -16 -16 -16 -16 -16 -16 -16 -16 -16 -16 -15 -16 -16 -16 -16 -16 -16 -16 -16 -17 -18 -18 -18 -18 -18 -18 -18 -18 -18 -19 -19 -19 -18 -18 -18 -18
-20 -19 -18 -19 -18 -18 -18 -18 -17 -17 -17 -17 -17 -17 -16 -16 -16 -16 -16 -16 -16 -16 -16 -16 -16 -16 -16 -16 -16 -16 -16 -16 -16 -16 -17 -17 -17 -17 -17 -17 -18 -18 -18 -18 -18 -18 -18 -19 -19 -19 -18 -18 -18 -18
-20 -19 -18 -19 -18 -18 -18 -18 -18 -17 -17 -17 -17 -17 -17 -17 -16 -16 -16 -16 -16 -16 -16 -16 -16 -16 -16 -17 -16 -16 -16 -16 -16 -16 -17 -17 -17 -17 -17 -17 -17 -18 -18 -18 -18 -18 -18 -18 -18 -18 -18 -18 -19 -19
-19 -19 -19 -18 -18 -18 -18 -18 -18 -18 -18 -18 -18 -18 -17 -17 -16 -16 -16 -16 -16 -16 -16 -16 -16 -17 -16 -17 -17 -17 -16 -16 -16 -17 -17 -17 -17 -17 -17 -18 -18 -17 -18 -18 -18 -18 -18 -18 -18 -18 -19 -19 -19 -19
-19 -19 -19 -19 -19 -18 -19 -18 -18 -18 -18 -18 -17 -17 -17 -17 -16 -16 -16 -17 -17 -17 -17 -17 -17 -17 -17 -17 -17 -17 -17 -17 -17 -17 -17 -17 -17 -17 -18 -18 -18 -18 -18 -18 -18 -18 -19 -19 -19 -19 -19 -19 -19 -19
-19 -19 -19 -19 -19 -19 -18 -18 -18 -18 -18 -18 -17 -17 -17 -17 -17 -17 -17 -17 -17 -17 -17 -17 -17 -17 -17 -17 -17 -17 -17 -17 -17 -17 -17 -18 -18 -18 -18 -18 -18 -18 -18 -18 -18 -18 -18 -19 -19 -19 -19 -19 -19 -19
-19 -19 -19 -19 -19 -19 -19 -18 -18 -18 -18 -18 -17 -17 -17 -17 -18 -17 -17 -17 -17 -17 -17 -17 -17 -17 -17 -17 -17 -17 -17 -17 -17 -17 -18 -18 -18 -18 -18 -18 -18 -18 -18 -19 -19 -19 -19 -19 -18 -19 -19 -19 -20 -20
-20 -19 -19 -19 -19 -19 -19 -19 -18 -18 -18 -18 -18 -18 -18 -18 -18 -18 -18 -18 -18 -18 -17 -17 -17 -17 -18 -18 -18 -18 -18 -18 -18 -18 -18 -18 -18 -18 -18 -18 -19 -19 -19 -19 -19 -19 -19 -19 -19 -19 -19 -19 -20 -20
-21 -20 -19 -19 -19 -19 -19 -19 -19 -19 -18 -18 -18 -18 -18 -18 -18 -18 -18 -18 -18 -18 -18 -18 -18 -17 -18 -18 -18 -18 -18 -18 -18 -18 -18 -18 -19 -19 -19 -19 -19 -19 -19 -20 -20 -20 -20 -20 -20 -20 -20 -20 -20 -20
-20 -20 -20 -20 -20 -20 -19 -19 -19 -19 -19 -19 -19 -19 -19 -19 -18 -18 -18 -18 -18 -18 -18 -18 -18 -18 -18 -18 -18 -18 -18 -18 -18 -18 -19 -19 -19 -19 -19 -19 -19 -19 -20 -20 -21 -21 -21 -21 -20 -20 -21 -21 -22 -22
-20 -20 -20 -20 -20 -20 -20 -20 -20 -20 -20 -19 -20 -19 -19 -19 -19 -19 -19 -18 -18 -18 -18 -18 -18 -18 -18 -18 -18 -18 -19 -19 -19 -19 -19 -19 -19 -19 -19 -20 -20 -20 -20 -21 -21 -22 -23 -22 -22 -22 -22 -23 -23 -23
-21 -21 -21 -20 -20 -21 -20 -20 -20 -20 -20 -20 -20 -19 -19 -19 -19 -19 -19 -19 -19 -19 -19 -19 -19 -19 -19 -19 -19 -19 -19 -19 -19 -19 -19 -19 -20 -20 -20 -20 -21 -21 -22 -22 -23 -24 -24 -24 -25 -24 -24 -24 -23 -24
-21 -21 -21 -21 -21 -21 -20 -20 -20 -20 -20 -20 -20 -20 -20 -19 -19 -19 -19 -19 -19 -19 -19 -19 -19 -19 -19 -19 -19 -19 -19 -19 -19 -19 -20 -20 -20 -21 -21 -22 -22 -23 -23 -24 -24 -25 -25 -25 -25 -25 -25 -24 -24 -24
-21 -21 -21 -21 -21 -21 -21 -21 -21 -20 -20 -20 -20 -20 -20 -19 -20 -20 -20 -20 -20 -20 -19 -19 -19 -19 -19 -19 -19 -19 -19 -19 -20 -20 -20 -20 -21 -22 -23 -23 -24 -24 -25 -25 -25 -25 -25 -25 -25 -25 -25 -24 -25 -24
-21 -21 -21 -21 -21 -21 -21 -21 -21 -21 -20 -20 -20 -20 -20 -20 -20 -20 -20 -20 -20 -19 -19 -19 -19 -19 -19 -19 -20 -19 -19 -20 -20 -20 -20 -21 -23 -24 -24 -25 -25 -26 -26 -26 -26 -25 -25 -25 -25 -25 -25 -25 -25 -25
-22 -22 -21 -21 -21 -21 -21 -21 -21 -21 -21 -21 -20 -20 -20 -20 -20 -20 -20 -20 -20 -20 -20 -20 -20 -20 -20 -20 -20 -20 -20 -20 -20 -21 -22 -24 -25 -25 -25 -26 -26 -26 -26 -26 -25 -26 -26 -26 -26 -26 -26 -25 -25 -25
-22 -21 -20 -21 -22 -22 -22 -22 -21 -21 -21 -20 -20 -20 -20 -21 -21 -21 -20 -20 -20 -20 -20 -20 -20 -20 -20 -20 -20 -19 -20 -21 -22 -23 -24 -25 -25 -25 -26 -26 -26 -26 -26 -26 -26 -26 -26 -26 -26 -26 -26 -26 -26 -26
-21 -21 -21 -21 -22 -22 -22 -22 -22 -21 -21 -21 -21 -21 -21 -21 -21 -21 -21 -21 -21 -21 -21 -20 -20 -20 -20 -20 -20 -21 -22 -23 -24 -24 -25 -25 -25 -26 -26 -26 -26 -26 -26 -26 -26 -26 -26 -26 -26 -26 -26 -26 -26 -26
-21 -21 -22 -21 -21 -22 -22 -22 -22 -21 -21 -21 -21 -21 -21 -21 -21 -22 -22 -22 -21 -21 -21 -21 -20 -21 -21 -22 -23 -23 -24 -24 -24 -25 -25 -25 -26 -26 -26 -26 -26 -26 -26 -26 -26 -26 -26 -26 -26 -26 -26 -26 -26 -26
-22 -22 -22 -22 -22 -22 -22 -22 -21 -21 -22 -22 -22 -22 -22 -22 -22 -22 -22 -22 -21 -21 -21 -21 -22 -22 -23 -23 -23 -23 -24 -24 -25 -26 -26 -26 -26 -26 -26 -26 -26 -26 -26 -26 -26 -26 -26 -26 -26 -26 -26 -26 -26 -26
-23 -23 -23 -23 -22 -22 -22 -22 -22 -22 -22 -22 -22 -23 -23 -23 -22 -22 -23 -23 -22 -22 -22 -23 -23 -23 -23 -24 -24 -24 -24 -24 -24 -24 -25 -25 -25 -25 -25 -26 -26 -25 -25 -25 -25 -26 -26 -26 -26 -26 -26 -26 -26 -26
-23 -23 -23 -23 -22 -23 -23 -22 -22 -22 -22 -22 -23 -23 -23 -23 -23 -23 -23 -23 -23 -23 -22 -23 -23 -23 -23 -23 -24 -24 -24 -24 -24 -25 -25 -25 -25 -25 -25 -25 -25 -25 -25 -25 -25 -25 -25 -25 -26 -26 -26 -26 -26 -26
-23 -23 -23 -23 -23 -23 -23 -22 -22 -22 -22 -22 -23 -23 -23 -23 -23 -23 -23 -23 -23 -23 -23 -23 -23 -23 -24 -24 -24 -24 -24 -24 -24 -24 -24 -25 -25 -25 -25 -25 -25 -25 -25 -25 -25 -25 -26 -26 -26 -26 -26 -26 -26 -26
-23 -23 -23 -23 -23 -22 -22 -22 -22 -22 -22 -23 -24 -23 -23 -23 -23 -23 -23 -23 -23 -23 -23 -24 -24 -24 -24 -24 -24 -24 -24 -24 -24 -24 -24 -24 -24 -25 -25 -25 -25 -25 -25 -25 -25 -25 -25 -26 -26 -26 -26 -26 -26 -26
Height
5494 5513 5534 5551 5569 5586 5602 5616 5631 5644 5657 5668 5679 5690 5700 5708 5717 5723 5728 5733 5737 5740 5742 5744 5746 5747 5748 5749 5748 5746 5743 5737 5731 5722 5711 5699 5685 5676 5669 5669 5674 5682 5691 5699 5707 5713 5720 5725 5730 5734 5736 5736 5738 5738
5498 5517 5534 5551 5568 5585 5601 5615 5630 5643 5655 5666 5678 5689 5699 5709 5716 5723 5728 5732 5736 5741 5741 5743 5746 5747 5748 5749 5748 5745 5742 5737 5731 5725 5717 5706 5697 5690 5686 5686 5692 5699 5704 5708 5715 5719 5723 5728 5732 5735 5738 5739 5741 5741
5499 5519 5536 5552 5568 5584 5600 5615 5629 5642 5654 5666 5678 5689 5699 5708 5714 5721 5726 5731 5736 5739 5741 5743 5745 5747 5748 5749 5747 5746 5742 5739 5734 5730 5726 5722 5715 5710 5706 5707 5707 5709 5713 5718 5722 5724 5727 5731 5735 5739 5741 5742 5743 5744
5504 5521 5537 5553 5569 5585 5600 5615 5629 5642 5654 5666 5678 5688 5697 5706 5714 5720 5726 5732 5735 5738 5739 5743 5745 5746 5749 5748 5746 5745 5743 5740 5737 5734 5733 5730 5727 5723 5721 5720 5720 5721 5724 5725 5727 5729 5732 5736 5739 5741 5743 5745 5746 5746
5507 5523 5539 5553 5570 5586 5601 5616 5630 5642 5654 5665 5676 5688 5698 5706 5714 5720 5725 5730 5733 5738 5738 5742 5745 5747 5748 5747 5747 5746 5745 5742 5739 5738 5737 5737 5734 5732 5730 5730 5729 5730 5731 5732 5732 5733 5736 5739 5741 5743 5745 5747 5747 5748
5510 5525 5540 5556 5572 5587 5602 5617 5630 5642 5654 5665 5677 5687 5695 5704 5711 5718 5725 5729 5732 5735 5738 5742 5744 5747 5748 5747 5748 5748 5746 5744 5742 5741 5740 5740 5739 5738 5736 5736 5735 5735 5735 5736 5737 5737 5739 5741 5743 5744 5746 5748 5748 5748
5513 5528 5542 5559 5575 5589 5604 5618 5630 5642 5655 5666 5676 5687 5697 5705 5713 5720 5725 5729 5731 5734 5738 5741 5744 5747 5748 5748 5748 5748 5748 5746 5745 5743 5742 5742 5742 5742 5741 5741 5740 5739 5739 5740 5740 5741 5742 5743 5744 5745 5746 5747 5748 5748
5517 5530 5545 5561 5577 5591 5606 5620 5632 5643 5654 5665 5676 5686 5695 5703 5710 5717 5723 5727 5730 5734 5737 5740 5743 5747 5748 5748 5749 5749 5749 5748 5746 5746 5744 5743 5744 5744 5744 5744 5744 5744 5743 5743 5743 5742 5743 5744 5745 5746 5747 5747 5748 5748
5520 5533 5549 5564 5579 5594 5608 5620 5631 5643 5654 5665 5676 5686 5695 5702 5709 5715 5721 5726 5729 5734 5736 5740 5743 5746 5747 5748 5749 5750 5750 5749 5748 5748 5747 5746 5745 5745 5746 5747 5747 5747 5747 5746 5746 5745 5745 5745 5745 5746 5747 5747 5748 5748
5523 5538 5552 5566 5581 5596 5609 5620 5632 5644 5655 5666 5677 5686 5693 5700 5707 5714 5719 5724 5728 5731 5735 5739 5742 5745 5747 5748 5748 5751 5750 5750 5750 5751 5750 5748 5747 5745 5746 5746 5747 5747 5748 5748 5747 5747 5746 5745 5746 5747 5747 5748 5748 5748
5527 5542 5555 5569 5583 5598 5610 5622 5634 5646 5655 5666 5676 5686 5694 5700 5707 5713 5718 5722 5726 5730 5734 5738 5741 5743 5746 5748 5749 5750 5750 5751 5751 5752 5752 5750 5749 5748 5747 5747 5747 5748 5749 5748 5748 5748 5748 5747 5747 5747 5747 5747 5747 5748
5531 5545 5559 5573 5587 5600 5612 5624 5636 5646 5658 5669 5679 5687 5694 5700 5705 5711 5715 5721 5725 5730 5733 5736 5740 5742 5744 5746 5748 5750 5750 5751 5752 5752 5752 5751 5751 5751 5750 5749 5748 5748 5748 5748 5748 5748 5748 5748 5747 5747 5746 5746 5746 5746
5536 5549 5563 5576 5589 5602 5613 5626 5637 5648 5659 5667 5675 5683 5690 5696 5701 5708 5714 5720 5724 5728 5732 5735 5739 5741 5743 5745 5747 5749 5749 5750 5751 5752 5752 5753 5752 5751 5751 5750 5749 5748 5747 5747 5747 5746 5746 5746 5746 5745 5745 5745 5744 5744
5540 5553 5566 5579 5591 5603 5615 5627 5638 5648 5658 5665 5674 5681 5687 5693 5701 5708 5714 5719 5723 5727 5730 5734 5737 5739 5741 5743 5745 5747 5748 5749 5750 5751 5751 5751 5752 5751 5751 5750 5750 5749 5748 5747 5746 5745 5744 5743 5743 5743 5742 5741 5741 5741
5543 5555 5568 5581 5593 5605 5617 5629 5639 5649 5658 5666 5673 5679 5687 5695 5702 5708 5711 5716 5720 5724 5728 5732 5735 5738 5739 5741 5743 5745 5746 5747 5748 5749 5749 5750 5750 5750 5749 5749 5749 5748 5747 5746 5745 5744 5742 5741 5740 5739 5738 5738 5737 5736
5548 5560 5572 5584 5596 5607 5619 5630 5639 5649 5657 5666 5673 5680 5689 5695 5700 5705 5710 5714 5718 5722 5726 5729 5733 5735 5736 5739 5741 5742 5744 5745 5746 5746 5747 5747 5748 5748 5747 5747 5746 5745 5744 5743 5742 5741 5740 5738 5737 5736 5734 5734 5733 5732
5551 5563 5574 5587 5598 5610 5621 5631 5640 5648 5657 5664 5672 5681 5687 5692 5697 5702 5706 5711 5715 5719 5724 5727 5729 5732 5734 5736 5738 5739 5741 5742 5742 5743 5744 5744 5744 5744 5744 5744 5743 5742 5741 5739 5738 5737 5735 5734 5732 5730 5728 5727 5726 5725
5556 5567 5579 5589 5600 5610 5620 5630 5640 5647 5656 5664 5673 5680 5684 5690 5695 5699 5703 5707 5712 5716 5720 5724 5726 5728 5730 5733 5734 5736 5737 5738 5738 5739 5739 5739 5740 5739 5739 5738 5738 5737 5736 5734 5732 5730 5728 5727 5726 5724 5722 5721 5720 5719
5560 5571 5582 5593 5602 5612 5620 5630 5638 5647 5656 5664 5671 5676 5682 5688 5692 5696 5701 5705 5709 5712 5715 5719 5722 5725 5727 5728 5729 5731 5732 5733 5734 5734 5734 5734 5734 5733 5732 5731 5731 5730 5728 5726 5724 5723 5721 5720 5719 5718 5717 5715 5715 5714
5562 5572 5583 5593 5603 5612 5620 5628 5638 5647 5654 5661 5668 5674 5679 5685 5690 5694 5698 5701 5705 5709 5712 5715 5718 5720 5722 5724 5725 5726 5727 5728 5728 5728 5728 5728 5727 5726 5725 5723 5722 5722 5720 5718 5717 5715 5713 5712 5712 5712 5710 5710 5711 5711
5565 5575 5585 5594 5602 5612 5620 5629 5637 5645 5651 5658 5666 5672 5677 5682 5686 5691 5695 5698 5702 5705 5708 5711 5714 5716 5716 5718 5720 5721 5721 5722 5722 5722 5721 5720 5719 5718 5717 5715 5713 5713 5712 5711 5710 5710 5710 5709 5708 5708 5707 5708 5708 5708
5565 5575 5586 5594 5602 5612 5620 5629 5636 5644 5650 5657 5662 5668 5674 5680 5684 5688 5692 5695 5698 5701 5704 5707 5709 5710 5711 5713 5714 5715 5715 5715 5714 5714 5713 5712 5710 5709 5707 5706 5706 5706 5706 5706 5706 5706 5707 5708 5708 5707 5707 5707 5705 5704
5565 5574 5582 5592 5602 5610 5619 5627 5634 5640 5647 5653 5660 5666 5671 5676 5681 5684 5687 5690 5693 5696 5700 5702 5704 5706 5706 5707 5708 5708 5708 5707 5707 5706 5704 5702 5700 5699 5698 5698 5699 5700 5701 5703 5704 5705 5707 5708 5708 5707 5706 5704 5702 5700
5565 5574 5582 5590 5598 5607 5616 5623 5631 5638 5644 5650 5657 5663 5668 5672 5675 5679 5683 5686 5689 5693 5695 5696 5698 5699 5699 5700 5701 5701 5700 5700 5698 5696 5694 5691 5690 5690 5691 5693 5695 5697 5700 5703 5705 5706 5706 5706 5705 5704 5703 5701 5699 5696
5562 5570 5580 5587 5594 5604 5611 5620 5628 5635 5642 5648 5653 5659 5663 5667 5671 5674 5678 5682 5685 5686 5688 5689 5691 5692 5693 5694 5694 5694 5693 5691 5689 5686 5684 5683 5684 5686 5689 5692 5695 5698 5700 5702 5704 5704 5704 5703 5702 5701 5699 5697 5695 5692
5562 5568 5577 5585 5593 5602 5610 5618 5624 5632 5639 5644 5649 5654 5658 5662 5665 5670 5673 5676 5677 5679 5681 5683 5685 5687 5688 5689 5688 5687 5685 5683 5681 5680 5680 5681 5683 5686 5689 5692 5695 5697 5700 5701 5702 5702 5701 5700 5699 5697 5696 5693 5691 5688
5561 5569 5578 5586 5593 5601 5609 5615 5623 5628 5633 5639 5645 5649 5652 5656 5661 5664 5666 5668 5671 5674 5676 5679 5681 5682 5682 5682 5681 5680 5680 5679 5680 5680 5681 5682 5685 5688 5690 5693 5695 5697 5698 5699 5699 5698 5697 5696 5694 5693 5690 5687 5685 5682
5563 5571 5578 5586 5593 5599 5606 5612 5618 5623 5629 5635 5639 5642 5647 5652 5657 5659 5662 5665 5667 5670 5672 5673 5675 5675 5676 5676 5676 5677 5678 5679 5680 5681 5683 5685 5687 5689 5691 5692 5694 5695 5696 5696 5695 5694 5693 5691 5689 5686 5684 5681 5679 5675
5562 5570 5576 5582 5588 5594 5600 5606 5611 5617 5624 5629 5634 5639 5645 5650 5654 5656 5659 5661 5664 5666 5668 5669 5670 5671 5672 5673 5675 5675 5677 5678 5680 5683 5684 5686 5688 5689 5690 5692 5693 5693 5693 5692 5691 5690 5687 5685 5682 5680 5677 5675 5672 5668
5558 5565 5571 5577 5582 5588 5594 5600 5606 5612 5617 5623 5629 5635 5640 5645 5650 5654 5657 5659 5661 5664 5666 5668 5670 5671 5673 5674 5675 5677 5678 5680 5681 5683 5684 5685 5686 5687 5688 5687 5687 5687 5687 5686 5684 5683 5681 5680 5677 5675 5672 5669 5666 5662
5554 5560 5566 5572 5577 5583 5588 5593 5598 5604 5611 5616 5622 5629 5636 5641 5647 5651 5654 5657 5660 5662 5664 5667 5669 5671 5673 5674 5675 5677 5678 5680 5682 5684 5684 5685 5686 5686 5686 5685 5685 5685 5684 5682 5681 5679 5677 5675 5672 5669 5666 5662 5658 5654
5550 5556 5562 5567 5572 5576 5582 5587 5592 5598 5603 5609 5615 5622 5629 5635 5641 5646 5651 5654 5657 5660 5663 5665 5668 5670 5672 5673 5674 5676 5677 5678 5680 5681 5682 5682 5682 5683 5683 5682 5682 5680 5679 5677 5675 5673 5671 5668 5666 5662 5659 5654 5649 5644
5547 5552 5557 5562 5567 5573 5578 5583 5588 5592 5598 5604 5611 5617 5624 5629 5633 5639 5643 5648 5652 5655 5659 5661 5663 5666 5668 5670 5672 5674 5675 5676 5677 5678 5677 5677 5677 5677 5676 5676 5675 5675 5673 5671 5669 5666 5663 5660 5657 5653 5649 5644 5639 5634
Wind_Speed
72 76 76 74 70 66 61 60 59 57 54 51 49 47 42 37 32 25 21 18 15 13 11 8 5 3 4 2 5 11 18 27 34 36 38 34 26 20 22 23 29 33 32 22 28 24 26 25 24 22 20 19 14 13
74 75 75 74 70 65 62 62 60 57 53 51 49 46 41 36 32 25 20 17 14 12 12 8 6 5 4 3 7 13 21 29 30 33 42 38 35 34 35 39 39 33 20 18 19 19 18 24 24 23 18 15 10 7
77 75 74 72 68 64 64 63 61 57 53 51 49 45 41 36 32 26 22 21 17 13 12 9 7 8 5 3 8 15 22 28 22 26 30 36 36 35 37 35 26 32 26 22 14 12 18 24 23 20 16 11 8 5
75 73 72 70 67 65 65 63 60 55 53 51 48 44 41 36 30 25 21 20 18 14 12 9 8 8 5 6 9 15 21 25 18 19 25 29 25 25 23 23 23 25 20 16 12 14 20 20 20 17 14 9 6 2
74 72 71 68 67 67 65 63 59 55 52 50 47 44 39 33 29 25 22 20 17 14 13 10 9 8 6 6 9 14 19 23 18 13 18 22 23 24 26 25 23 21 17 14 9 12 18 16 17 15 12 8 4 1
72 71 69 68 68 68 66 62 58 54 52 49 47 43 41 37 32 27 22 20 17 14 12 11 11 8 6 6 7 14 18 22 19 10 8 11 16 17 16 15 16 17 17 16 12 12 12 12 12 14 11 9 7 6
70 69 69 68 68 67 64 60 57 55 51 49 47 44 40 36 29 24 23 21 17 15 14 12 11 9 6 6 6 12 15 19 21 17 7 7 10 12 13 12 14 15 14 13 10 6 11 9 8 10 11 9 8 6
70 71 69 69 68 67 64 60 57 54 52 50 47 45 41 36 33 28 24 23 19 16 15 13 11 9 7 6 5 10 13 16 20 21 15 3 2 8 8 9 8 9 10 10 11 10 5 10 9 7 8 9 6 5
71 70 70 70 68 66 63 59 57 54 52 49 46 43 40 36 33 28 26 22 20 16 13 13 13 10 7 5 4 7 11 15 18 19 18 18 5 3 4 6 6 5 5 6 6 4 3 4 4 7 7 9 7 6
71 70 71 71 68 65 63 59 56 53 50 48 46 43 41 38 33 29 27 23 21 17 15 15 13 11 8 5 3 5 9 12 15 15 16 19 18 13 1 1 4 5 5 5 6 6 5 2 4 0 3 7 9 8
70 71 72 71 68 65 61 58 55 53 50 48 45 41 39 36 31 27 26 25 22 18 15 14 13 11 9 5 3 2 5 9 11 13 16 19 17 16 14 5 1 2 1 4 4 7 8 5 1 3 5 7 9 10
71 71 72 70 67 63 60 57 55 52 49 45 41 39 38 35 31 29 27 25 22 18 14 14 13 11 10 8 4 2 2 5 8 11 13 16 17 17 16 13 9 1 5 6 5 5 6 6 6 7 6 6 10 11
71 72 71 69 65 62 59 56 53 50 47 45 44 42 39 36 33 30 26 24 22 18 16 14 13 12 10 8 6 3 1 4 4 7 10 12 13 14 15 15 9 7 6 4 8 10 11 9 7 8 8 9 10 11
72 71 70 68 65 62 58 55 52 50 48 46 44 42 41 36 31 27 25 23 22 20 17 14 14 12 11 9 7 4 4 4 3 6 8 10 11 13 13 14 13 12 9 8 10 10 9 12 12 12 11 10 9 12
71 71 69 67 64 61 58 55 53 49 46 45 43 41 37 31 27 24 25 24 24 23 19 16 16 14 12 10 8 7 7 7 6 6 7 9 10 11 12 11 12 13 12 10 10 12 14 16 15 16 16 17 18 16
69 69 67 65 63 60 57 54 52 49 47 43 40 37 31 28 24 23 22 23 23 24 22 19 17 15 14 13 12 11 10 11 10 11 11 11 12 13 13 12 13 14 16 15 14 13 13 15 18 20 21 22 22 21
67 67 66 64 62 59 56 54 51 49 46 43 39 33 29 26 25 24 23 23 23 23 22 21 19 17 15 15 14 14 15 15 15 16 15 14 15 16 17 17 17 17 18 19 18 17 16 18 19 21 24 26 24 25
66 65 64 63 61 59 56 53 51 48 45 40 35 31 29 26 24 23 22 23 22 21 23 22 21 19 19 17 17 18 18 19 20 19 19 20 21 21 20 20 21 21 21 21 19 19 20 21 23 27 27 27 26 26
66 65 64 62 60 58 56 54 52 46 41 37 35 32 29 26 24 24 22 21 21 22 23 22 21 20 19 19 20 21 21 21 22 22 23 24 25 25 25 25 25 25 25 24 23 24 23 23 23 25 27 26 18 16
65 64 62 60 58 57 55 52 49 46 43 38 34 31 28 25 22 21 22 23 23 22 21 21 21 21 23 22 22 22 22 22 23 25 27 28 28 28 28 29 29 28 28 26 25 23 20 21 21 22 23 19 13 11
63 61 60 59 57 55 53 53 49 46 40 36 32 29 26 24 23 22 21 21 21 21 21 21 23 23 21 21 22 22 23 25 26 28 29 29 29 30 32 33 30 27 26 24 22 14 12 10 5 8 9 12 14 15
62 61 59 57 56 54 52 49 43 41 38 35 33 30 27 23 21 21 21 22 22 23 23 19 18 18 16 18 21 23 25 27 28 28 29 31 32 33 33 29 27 23 22 17 13 12 11 8 2 6 9 14 20 23
65 66 64 59 52 49 46 44 43 41 39 36 34 31 28 26 24 23 23 23 22 22 21 19 19 18 19 21 23 25 26 27 28 30 33 35 36 32 25 21 19 17 13 11 10 9 9 7 7 12 15 19 21 23
60 60 60 58 56 55 52 47 44 40 38 36 32 29 28 28 26 25 24 20 18 17 19 20 20 21 22 23 24 24 25 27 31 33 36 36 24 17 17 17 13 10 8 8 8 8 9 9 10 14 18 22 24 26
53 52 53 55 55 51 49 46 43 40 35 31 32 30 26 28 24 20 20 19 20 21 22 23 22 22 22 21 22 24 26 30 34 38 26 12 10 12 11 10 9 8 9 9 9 9 8 10 13 15 19 21 22 24
57 55 56 52 49 47 46 44 42 39 37 34 29 30 30 27 26 24 23 22 20 20 21 22 21 18 17 17 20 24 29 32 26 14 5 3 2 3 6 9 10 11 8 5 5 8 12 15 17 21 24 26 27 28
57 54 52 50 50 47 46 44 42 40 40 39 34 31 30 28 24 21 19 20 21 22 19 15 11 11 15 20 23 22 12 5 7 7 5 3 3 5 7 7 11 11 9 9 11 12 16 20 26 30 33 34 32 31
50 49 46 46 44 43 42 41 41 41 40 37 35 35 31 25 20 19 20 20 17 14 13 12 12 17 18 14 6 7 9 8 10 9 5 4 3 2 4 5 9 13 14 16 17 22 27 31 35 36 31 32 33 32
41 41 42 41 41 40 40 41 40 38 35 34 34 27 21 25 28 23 19 19 20 16 12 13 11 8 10 16 18 17 18 20 16 10 4 1 4 7 9 12 15 17 19 22 26 31 31 28 27 26 25 25 28 31
42 42 41 41 41 41 40 40 39 38 38 36 30 30 37 35 33 27 22 22 22 19 18 16 16 16 17 17 19 19 20 21 18 15 11 9 10 7 5 5 7 9 10 11 14 17 20 22 24 27 27 31 33 35
44 43 42 40 40 38 38 39 39 39 39 36 41 45 42 38 36 31 27 27 26 25 23 19 16 15 12 12 13 13 13 11 8 7 7 4 2 1 3 5 7 8 10 10 12 14 16 18 20 24 27 29 32 37
38 40 39 38 38 38 38 38 39 39 41 49 54 51 47 43 41 35 29 25 24 24 21 18 14 12 10 8 7 6 6 3 2 1 1 3 4 6 7 10 13 14 15 16 16 18 19 21 24 28 31 34 36 40
40 42 41 40 38 39 37 40 42 41 50 57 56 53 48 43 42 40 36 31 27 24 20 17 16 12 11 10 6 6 5 5 7 9 10 10 10 11 12 15 16 18 19 19 20 21 23 25 28 32 36 39 40 41
Wind_Direction
173 172 173 173 173 176 177 176 175 175 174 174 174 176 175 177 179 177 178 179 175 183 173 179 189 189 134 74 8 356 347 353 356 2 7 3 21 47 64 95 118 128 144 169 150 164 149 152 144 138 133 121 116 115
171 172 173 171 173 174 175 174 173 173 174 172 174 175 175 176 179 179 178 178 178 181 168 164 180 164 138 59 14 1 358 7 17 39 41 43 56 72 89 104 111 117 139 139 146 140 147 156 150 149 143 140 128 107
168 171 171 170 171 173 172 172 172 173 172 172 174 174 174 177 177 178 178 178 174 174 162 159 182 161 134 71 20 13 8 22 33 47 47 53 69 84 100 111 79 94 118 127 130 131 153 158 156 156 156 152 137 105
167 169 169 169 169 171 171 171 172 172 172 171 172 173 177 178 177 181 179 178 171 172 157 167 179 158 149 74 31 13 24 32 49 49 56 58 68 77 80 81 84 94 107 111 109 126 149 160 163 166 166 169 160 106
168 168 168 168 169 170 170 170 171 171 170 170 171 175 176 177 178 181 181 179 168 170 158 168 174 158 143 82 38 23 31 38 55 68 63 62 66 73 79 82 83 86 91 99 104 132 151 162 175 179 183 191 202 286
168 167 168 167 168 169 169 170 170 169 170 169 171 173 176 178 180 179 178 175 167 162 167 168 170 162 140 89 44 32 36 46 51 82 77 48 56 66 71 73 78 85 81 79 89 147 152 169 179 194 203 217 239 275
168 168 166 167 168 168 168 169 170 169 168 169 172 175 176 177 176 175 174 176 169 167 166 168 173 166 143 95 58 41 37 54 55 58 94 70 60 71 76 85 94 90 81 80 79 119 185 181 196 201 213 225 241 267
169 169 165 166 167 167 168 170 168 168 169 171 173 176 176 176 177 175 179 173 171 174 171 172 179 172 147 110 74 45 39 43 53 58 65 129 55 76 77 89 91 89 82 76 73 82 161 212 218 223 228 226 237 255
168 166 166 165 166 168 169 169 167 170 170 172 176 176 178 178 178 177 181 180 174 171 173 179 176 171 162 131 82 56 45 44 42 56 61 62 82 156 106 65 59 82 71 44 35 39 122 157 200 224 229 220 229 247
167 166 166 165 166 169 170 168 169 171 170 173 175 178 179 179 179 181 183 181 178 176 179 181 184 177 165 149 126 58 46 48 46 53 62 67 68 66 151 42 52 61 58 46 33 21 16 236 228 357 248 247 239 240
166 166 166 166 168 170 169 168 170 172 172 175 177 178 182 179 180 184 186 187 180 177 182 186 185 183 177 171 155 82 36 37 34 44 49 58 67 70 68 64 274 317 33 62 40 26 18 5 301 276 294 253 252 253
166 166 166 166 168 169 168 169 172 173 173 175 177 180 184 183 184 188 188 188 184 182 186 187 190 192 193 190 191 188 11 14 18 23 31 40 52 61 63 60 56 9 271 285 304 328 347 343 341 288 293 286 259 260
166 167 166 167 168 168 169 171 172 171 174 175 179 183 184 188 189 189 188 188 189 188 187 191 196 202 204 203 205 208 284 324 352 11 27 29 31 37 44 48 51 37 22 323 283 283 290 296 305 310 314 291 274 269
167 166 167 167 168 169 169 172 173 175 176 180 183 184 189 189 190 190 188 189 193 196 197 200 202 206 209 209 210 215 243 278 316 350 9 12 11 12 18 27 33 32 4 339 333 328 301 280 282 277 279 285 302 288
167 167 168 169 170 170 172 173 174 177 179 184 185 190 191 189 187 188 192 196 198 200 201 205 210 212 215 217 219 229 240 257 282 309 331 343 348 350 354 1 5 3 5 360 335 315 310 305 298 290 283 278 277 278
168 168 170 171 170 171 174 175 177 178 182 185 189 192 187 188 190 196 200 203 202 205 206 209 216 220 224 225 230 239 246 256 271 286 303 317 324 326 326 328 331 334 335 336 333 324 314 306 300 297 290 282 281 280
168 170 171 172 171 173 176 178 179 183 184 188 191 188 187 189 194 200 202 206 207 209 211 215 221 229 235 236 240 248 254 263 272 282 291 300 309 312 310 309 309 312 316 315 306 301 302 304 298 291 289 293 290 279
169 171 174 174 174 176 179 180 183 185 189 189 186 188 191 194 200 205 207 209 210 211 215 219 224 234 241 246 250 253 260 268 276 278 284 294 304 304 302 302 302 304 306 300 284 279 275 276 281 287 289 290 294 297
173 174 177 178 177 179 180 184 184 188 188 186 187 190 194 199 204 208 212 212 212 215 219 223 228 238 249 255 257 260 264 269 276 281 288 297 301 300 298 299 302 302 300 291 278 274 274 274 275 278 284 291 298 301
175 175 179 180 180 182 186 187 186 188 188 187 188 193 198 201 205 208 211 214 217 219 222 228 236 244 253 259 262 264 269 273 277 282 290 295 296 296 298 298 298 295 289 280 275 279 281 280 281 282 288 299 327 330
176 177 179 181 184 188 190 190 192 190 186 190 190 196 200 203 206 209 212 216 218 222 228 239 248 252 255 261 266 269 272 276 281 287 292 295 294 294 295 293 288 282 277 271 273 269 250 251 304 300 311 327 325 326
176 178 182 183 186 188 193 195 192 192 194 192 196 200 203 208 212 216 222 226 232 238 242 238 248 257 260 262 265 271 277 281 284 288 289 288 290 289 289 287 282 271 266 262 255 248 228 209 54 23 339 322 335 339
183 183 182 184 188 188 191 194 196 199 199 200 201 205 209 213 217 225 230 235 237 233 236 247 254 257 264 268 270 273 277 282 286 288 288 287 287 290 286 271 260 255 244 235 232 225 228 247 288 317 325 330 334 332
185 184 186 188 189 191 192 196 197 198 203 203 205 210 213 216 222 225 230 232 234 244 252 256 254 255 258 262 268 275 281 285 285 286 285 290 297 272 254 246 233 218 221 217 219 240 267 278 300 310 319 321 324 326
189 190 190 188 190 189 191 195 200 201 203 209 213 213 218 218 221 221 227 239 253 252 247 245 247 250 256 265 272 277 282 281 280 283 294 282 255 243 236 210 202 212 217 227 248 271 291 308 319 322 318 318 320 321
191 194 194 196 198 197 199 202 203 204 206 210 211 215 220 223 231 239 250 255 249 236 235 237 241 248 258 267 271 271 274 281 294 316 313 290 267 221 189 196 214 205 216 251 284 310 319 324 325 325 325 321 317 316
199 200 200 199 201 203 203 204 205 208 212 214 218 223 225 228 242 251 242 226 222 226 227 226 234 256 259 258 264 274 298 15 58 50 41 71 123 168 197 222 222 227 249 276 301 307 309 315 319 321 324 321 316 319
203 202 204 205 207 207 208 209 211 213 215 217 221 227 231 238 231 204 187 188 193 200 198 208 230 240 247 248 224 121 105 98 81 68 82 139 176 227 265 260 247 257 270 282 289 302 311 315 319 322 321 317 318 321
199 202 204 205 206 207 209 210 212 214 214 216 220 221 224 193 175 161 164 173 172 179 192 214 218 204 141 123 117 118 115 106 94 82 77 238 266 285 297 299 301 294 287 288 297 305 310 316 321 325 327 326 325 323
196 197 199 201 205 208 209 209 210 212 211 213 215 199 179 175 176 168 163 160 160 163 152 144 134 127 118 115 113 112 109 101 99 98 88 73 64 49 31 4 348 345 345 352 349 345 346 342 338 336 332 329 326 322
198 201 202 204 207 207 208 209 210 208 205 202 194 180 179 180 181 178 171 158 153 153 148 148 147 133 131 120 115 107 105 97 96 92 85 102 169 250 302 334 330 320 314 318 319 319 321 320 321 321 320 316 317 325
197 196 195 198 201 201 201 203 203 201 199 190 180 184 185 185 187 184 188 185 173 167 167 161 160 160 162 156 141 138 137 118 117 151 231 276 277 273 283 295 302 305 305 308 310 315 325 327 329 329 326 320 319 321
201 201 203 203 202 202 203 203 202 201 196 184 185 190 191 192 194 194 194 194 193 192 191 192 199 189 192 198 214 229 229 256 290 297 300 296 291 288 290 297 304 307 306 306 308 314 321 323 322 324 326 327 322 321